Simultaneous Nadir Overpasses (SNOs) Predictions

Prediction of SNOs between GOES-17 and TERRA Satellite Orbit:

Table of predicted SNOs for the next 14.0 days since TLE Epoch: 4/29/2023
Index Date Time (GOES-17) GOES-17 Lat,Lon TERRA Lat,Lon Distance(km) Time Diff (sec)
1 05/01/2023 05:04:01 -0.01,-104.72 0.07,-104.47 28.48 80
2 05/03/2023 04:47:47 -0.01,-104.72 0.85,-100.55 473.83 80
3 05/03/2023 17:08:01 0.01,-104.75 0.15,-105.47 81.24 80
4 05/05/2023 16:54:27 0.02,-104.75 -0.66,-101.54 364.41 80
5 05/06/2023 05:14:48 -0.02,-104.72 -0.42,-106.48 201.10 80
6 05/08/2023 04:55:55 -0.00,-104.71 0.47,-102.58 243.40 80
7 05/08/2023 17:16:07 -0.00,-104.74 0.57,-107.49 312.30 80
8 05/10/2023 17:02:34 -0.02,-104.73 -0.29,-103.57 132.08 80
9 05/11/2023 05:22:54 0.02,-104.70 -0.78,-108.51 433.20 80
